カタログに戻る

IRIDIUM 44

運用中通信PO
NORAD 25078·PAYLOAD·🇺🇸 United States

打ち上げ Dec 8, 1997 から Taiyuan Satellite Launch Center

Loading…

次のパス (今後24時間)

TLE

最新Source: Space-Track

元期: Sep 14, 2026, 08:56 UTC

1 25078U 97077B   26257.37237266  .00000252  00000-0  72742-4 0  9995
2 25078  86.3974  29.4799 0002132  39.9572 320.1784 14.40613050509085

AllMySatでIRIDIUM 44をリアルタイム追跡

Download on the App Store